Back to catalog

FENGYUN 1C DEB

AliveSSO
NORAD 30382·DEBRIS·🇨🇳 China

Launched May 10, 1999 from Taiyuan Satellite Launch Center

Loading…

Next Passes (next 24 hours)

TLE

FreshSource: Space-Track

Epoch: Sep 14, 2026, 08:38 UTC

1 30382U 99025ACV 26257.35978297  .00001067  00000-0  41008-3 0  9993
2 30382  98.4742 292.1367 0151736 269.2868  99.9385 14.26362449 14601

Track FENGYUN 1C DEB in real time with AllMySat

Download on the App Store